Weather History for Jennings, LA

Change the Weather History Date:

Wednesday, December 5, 2012

  Actual Average (KLCH) Record (KLCH)
Temperature  
Mean Temperature 62 °F 56 °F  
Max Temperature 68 °F 66 °F 88 °F (1912)
Min Temperature 57 °F 46 °F 24 °F (1898)
Degree Days  
Heating Degree Days 2 10  
Month to date heating degree days 48  
Since 1 July heating degree days 255  
Cooling Degree Days 0 1  
Month to date cooling degree days 5  
Year to date cooling degree days 2794  
Growing Degree Days 12 (Base 50)    
Moisture  
Dew Point 58 °F    
Average Humidity 88    
Maximum Humidity 100    
Minimum Humidity 71    
Precipitation  
Precipitation 0.05 in 0.14 in 5.85 in (1971)
Month to date precipitation 0.74  
Year to date precipitation 53.55  
Snow  
Snow 0.00 in 0.00 in 0.00 in ()
Month to date snowfall 0.0  
Since 1 July snowfall 0.0  
Snow Depth -    
Sea Level Pressure  
Sea Level Pressure 30.11 in    
Wind  
Wind Speed 6 mph (NNE)    
Max Wind Speed 14 mph    
Max Gust Speed 22 mph    
Visibility 10 miles    
Events      
T = Trace of Precipitation, MM = Missing Value Source: NWS Daily Summary

Daily Weather History Graph

Daily Weather History Graph

Search for Another Location

Airport:

Trip Planner

Search our weather history database for the weather conditions in past years. The results will help you decide how hot, cold, wet, or windy it might be!

Date:

Astronomy

Dec. 05, 2012 Rise Set
Actual Time 6:52 AM CST 5:10 PM CST
Civil Twilight 6:26 AM CST 5:36 PM CST
Nautical Twilight 5:57 AM CST 6:06 PM CST
Astronomical Twilight 5:27 AM CST 6:35 PM CST
Moon 11:38 PM CST (12/5) 11:35 AM CST (12/5)
Length of Visible Light 11h 09m
Length of Day
10h 17m
Waning Gibbous, 59% of the Moon is Illuminated
Dec 5
Waning Gibbous
Dec 6
Last Quarter
Dec 13
New
Dec 19
First Quarter
Dec 28
Full

Hourly Weather History & Observations

Time (CST) Temp. Dew Point Humidity Pressure Visibility Wind Dir Wind Speed Gust Speed Precip Events Conditions
12:15 AM 59.9 °F 59.9 °F 100% 30.15 in 10.0 mi North 3.5 mph - N/A   Clear
12:35 AM 59.9 °F 59.9 °F 100% 30.16 in 10.0 mi North 4.6 mph - N/A   Clear
12:55 AM 60.1 °F 59.9 °F 99% 30.16 in 10.0 mi North 3.5 mph - N/A   Clear
1:15 AM 60.1 °F 59.9 °F 99% 30.15 in 10.0 mi NNE 5.8 mph - N/A   Mostly Cloudy
1:55 AM 60.1 °F 59.5 °F 98% 30.15 in 10.0 mi Calm Calm - N/A   Overcast
2:15 AM 60.1 °F 59.2 °F 97% 30.15 in 10.0 mi Calm Calm - N/A   Mostly Cloudy
2:35 AM 59.9 °F 59.5 °F 99% 30.13 in 10.0 mi Calm Calm - N/A   Mostly Cloudy
2:55 AM 59.5 °F 59.4 °F 99% 30.12 in 10.0 mi South 3.5 mph - N/A   Scattered Clouds
3:15 AM 59.4 °F 59.2 °F 99% 30.11 in 10.0 mi SSE 4.6 mph - N/A   Clear
3:35 AM 59.5 °F 59.2 °F 99% 30.11 in 10.0 mi Calm Calm - N/A   Clear
3:55 AM 59.5 °F 59.2 °F 99% 30.11 in 10.0 mi Calm Calm - N/A   Clear
4:15 AM 59.5 °F 59.4 °F 99% 30.12 in 10.0 mi Calm Calm - N/A   Clear
4:35 AM 59.5 °F 59.4 °F 99% 30.11 in 10.0 mi Calm Calm - N/A   Clear
4:55 AM 59.5 °F 59.4 °F 99% 30.13 in 10.0 mi NNW 6.9 mph - N/A   Mostly Cloudy
5:15 AM 59.4 °F 59.2 °F 99% 30.14 in 10.0 mi NNW 6.9 mph - N/A   Mostly Cloudy
5:35 AM 59.5 °F 59.4 °F 99% 30.15 in 10.0 mi NNW 5.8 mph - N/A   Overcast
5:55 AM 59.9 °F 59.5 °F 99% 30.15 in 10.0 mi NNW 5.8 mph - N/A   Overcast
6:15 AM 60.1 °F 59.5 °F 98% 30.16 in 10.0 mi NNW 5.8 mph - N/A   Overcast
6:35 AM 60.1 °F 59.5 °F 98% 30.16 in 10.0 mi North 5.8 mph - N/A   Overcast
6:55 AM 60.1 °F 59.5 °F 98% 30.16 in 10.0 mi North 9.2 mph - N/A   Overcast
8:35 AM 60.8 °F 59.0 °F 94% 30.15 in 10.0 mi NE 10.4 mph - N/A   Scattered Clouds
8:55 AM 60.8 °F 58.6 °F 93% 30.16 in 10.0 mi NNE 12.7 mph - N/A   Clear
9:15 AM 61.7 °F 59.4 °F 92% 30.17 in 10.0 mi NNE 8.1 mph - N/A   Scattered Clouds
9:35 AM 62.1 °F 59.0 °F 90% 30.16 in 10.0 mi NNE 12.7 mph 17.3 mph N/A   Mostly Cloudy
9:55 AM 62.6 °F 59.2 °F 89% 30.17 in 10.0 mi NNE 11.5 mph - N/A   Overcast
10:15 AM 63.5 °F 58.8 °F 85% 30.16 in 10.0 mi NNE 12.7 mph - N/A   Mostly Cloudy
10:35 AM 63.7 °F 58.6 °F 84% 30.16 in 10.0 mi North 10.4 mph 18.4 mph N/A   Mostly Cloudy
10:55 AM 64.8 °F 59.0 °F 82% 30.15 in 10.0 mi NE 11.5 mph - N/A   Mostly Cloudy
11:15 AM 66.0 °F 58.8 °F 78% 30.15 in 10.0 mi NNE 12.7 mph 17.3 mph N/A   Mostly Cloudy
11:35 AM 64.9 °F 58.5 °F 79% 30.13 in 10.0 mi NNE 9.2 mph - N/A   Mostly Cloudy
11:55 AM 66.7 °F 59.0 °F 76% 30.12 in 10.0 mi NNE 11.5 mph - N/A   Scattered Clouds
12:15 PM 67.8 °F 59.0 °F 73% 30.11 in 10.0 mi NE 13.8 mph - N/A   Mostly Cloudy
12:35 PM 67.8 °F 58.6 °F 72% 30.10 in 10.0 mi NE 13.8 mph - N/A   Scattered Clouds
12:55 PM 67.6 °F 58.3 °F 72% 30.10 in 10.0 mi NNE 13.8 mph 18.4 mph N/A   Scattered Clouds
1:15 PM 68.0 °F 58.5 °F 71% 30.08 in 7.0 mi North 10.4 mph - N/A   Scattered Clouds
1:35 PM 68.0 °F 59.0 °F 73% 30.07 in 7.0 mi NE 12.7 mph - N/A   Mostly Cloudy
1:55 PM 68.2 °F 58.8 °F 72% 30.07 in 10.0 mi NNE 11.5 mph - N/A   Mostly Cloudy
2:15 PM 67.6 °F 59.0 °F 74% 30.07 in 10.0 mi NNE 9.2 mph - N/A   Mostly Cloudy
2:35 PM 67.3 °F 58.6 °F 74% 30.07 in 10.0 mi NNE 8.1 mph - N/A   Overcast
2:55 PM 66.2 °F 58.6 °F 77% 30.07 in 10.0 mi NE 12.7 mph 21.9 mph N/A   Overcast
3:15 PM 66.2 °F 58.5 °F 76% 30.07 in 10.0 mi NE 9.2 mph - N/A   Overcast
3:35 PM 66.2 °F 58.3 °F 76% 30.07 in 10.0 mi NE 11.5 mph - N/A   Overcast
3:55 PM 65.3 °F 58.1 °F 77% 30.07 in 10.0 mi NNE 9.2 mph - N/A   Overcast
4:15 PM 64.8 °F 57.2 °F 76% 30.07 in 10.0 mi NNE 11.5 mph - N/A   Overcast
4:35 PM 63.7 °F 57.2 °F 79% 30.08 in 10.0 mi NNE 8.1 mph - N/A   Mostly Cloudy
4:55 PM 63.1 °F 56.7 °F 79% 30.07 in 10.0 mi NNE 12.7 mph - N/A   Scattered Clouds
5:15 PM 62.6 °F 56.8 °F 81% 30.07 in 10.0 mi NNE 9.2 mph - N/A   Mostly Cloudy
5:35 PM 62.4 °F 56.7 °F 81% 30.08 in 10.0 mi North 6.9 mph - N/A   Overcast
5:55 PM 62.1 °F 56.5 °F 82% 30.08 in 10.0 mi North 8.1 mph - N/A   Overcast
6:15 PM 61.2 °F 55.8 °F 82% 30.08 in 10.0 mi NNE 5.8 mph - N/A   Mostly Cloudy
6:35 PM 60.3 °F 55.6 °F 85% 30.08 in 10.0 mi North 4.6 mph - N/A   Clear
6:55 PM 59.5 °F 56.3 °F 89% 30.09 in 10.0 mi North 3.5 mph - N/A   Clear
7:15 PM 59.0 °F 56.5 °F 91% 30.09 in 10.0 mi North 3.5 mph - N/A   Clear
7:35 PM 58.1 °F 55.8 °F 92% 30.09 in 10.0 mi North 5.8 mph - N/A   Clear
7:55 PM 58.1 °F 56.1 °F 93% 30.09 in 10.0 mi North 4.6 mph - N/A   Clear
8:15 PM 57.6 °F 55.8 °F 94% 30.08 in 10.0 mi NNE 4.6 mph - N/A   Clear
8:35 PM 58.1 °F 55.9 °F 93% 30.08 in 10.0 mi NNE 6.9 mph - N/A   Scattered Clouds
8:55 PM 58.3 °F 55.9 °F 92% 30.08 in 10.0 mi NNE 4.6 mph - N/A   Mostly Cloudy
9:15 PM 57.7 °F 55.6 °F 92% 30.08 in 10.0 mi NNE 4.6 mph - N/A   Scattered Clouds
9:35 PM 58.5 °F 56.3 °F 93% 30.08 in 10.0 mi NNE 4.6 mph - N/A   Overcast
9:55 PM 59.0 °F 56.7 °F 92% 30.08 in 10.0 mi NNE 6.9 mph - N/A   Overcast
10:15 PM 59.0 °F 56.8 °F 93% 30.07 in 10.0 mi NNE 6.9 mph - N/A   Overcast